User: anonymous   Login
Location: Newark
(14.6333°N, 90.5000°W)
Time: 20:08:51
(UTC+00:00)
Language:

LO-87 - Orbit

View from above orbital plane
View from above orbital plane
View from above satellite
View from above satellite

Ground track
Ground track

The orbit data is extracted from the following two-line orbital elements,

1 41557U 16033B   20020.57780451 +.00000888 +00000-0 +35544-4 0  9995
2 41557 097.4097 111.7930 0012107 252.5798 107.4117 15.27673037203042
Epoch (UTC): 20 January 2020 13:52:02
Eccentricity: 0.0012107
inclination: 97.4097°
perigee height: 474 km
apogee height: 491 km
right ascension of ascending node: 111.7930°
argument of perigee: 252.5798°
revolutions per day: 15.27673037
mean anomaly at epoch: 107.4117°
orbit number at epoch: 20304

The dashed part of the orbit path shows where the satellite is in the earth's shadow,  

DLR